Tracking 28790 objects as of 19-Apr-2024
HD Live streaming from Space Station
objects crossing your sky now

FENGYUN 1C DEB

Track FENGYUN 1C DEB now!
10-day predictions


NORAD ID: 35090
Int'l Code: 1999-025DJS
Perigee: 820.2 km
Apogee: 905.3 km
Inclination: 99.2 °
Period: 102.0 minutes
Semi major axis: 7233 km
RCS: 0.0091 m2 (small)
Launch date: May 10, 1999
Source: People's Republic of China (PRC)
Launch site: Taiyaun Space Center, China (TSC)

Note: This is SATELLITE DEBRIS
Your satellite tracking list
Your tracking list is empty




NASA's NSSDC Master Catalog

Two Line Element Set (TLE):
1 35090U 99025DJS 24108.20113335  .00008117  00000-0  44572-2 0  9996
2 35090  99.1902  96.6109 0058823 279.1778  80.2741 14.11107992798750
Source of the keplerian elements: AFSPC